When you browse on this site, cookies collect data to enhance your experience and personalize the content and advertising you see.
Visit our Privacy Policy to learn more. By continuing to use the site, you agree to this use of cookies and data.

Stündliche Wetter Bolshie Hutora

Heute, 25 September, Freitag

Zeit Temperatur Niederschläge Wind Luftdruck Luftfeuchtigkeit
00:00 +11°C° 0 mm 3 m/S 743 mmHg 75%
01:00 +11°C° 0 mm 3 m/S 743 mmHg 75%
02:00 +11°C° 0 mm 3 m/S 743 mmHg 74%
03:00 +11°C° 0 mm 3 m/S 743 mmHg 74%
04:00 +11°C° 0 mm 3 m/S 743 mmHg 74%
05:00 +11°C° 0 mm 3 m/S 743 mmHg 74%
06:00 +11°C° 0 mm 3 m/S 743 mmHg 72%
07:00 +12°C° 0 mm 3 m/S 742 mmHg 71%
08:00 +13°C° 0 mm 3 m/S 742 mmHg 68%
09:00 +15°C° 0 mm 4 m/S 742 mmHg 66%
10:00 +17°C° 0 mm 4 m/S 742 mmHg 63%
11:00 +18°C° 0 mm 4 m/S 742 mmHg 60%
12:00 +19°C° 0 mm 4 m/S 742 mmHg 61%
13:00 +19°C° 0 mm 5 m/S 742 mmHg 61%
14:00 +21°C° 0 mm 4 m/S 742 mmHg 64%
15:00 +20°C° 0 mm 4 m/S 742 mmHg 68%
16:00 +19°C° 0 mm 4 m/S 741 mmHg 72%
17:00 +19°C° 0 mm 4 m/S 741 mmHg 75%
18:00 +18°C° 0 mm 4 m/S 741 mmHg 75%
19:00 +18°C° 0 mm 4 m/S 741 mmHg 74%
20:00 +18°C° 0 mm 4 m/S 741 mmHg 73%
21:00 +17°C° 0 mm 5 m/S 741 mmHg 69%
22:00 +16°C° 0 mm 5 m/S 741 mmHg 65%
23:00 +16°C° 0 mm 5 m/S 741 mmHg 61%

Morgen, 26 September, Samstag

Zeit Temperatur Niederschläge Wind Luftdruck Luftfeuchtigkeit
00:00 +15°C° 0 mm 5 m/S 741 mmHg 63%
01:00 +14°C° 0 mm 5 m/S 741 mmHg 64%
02:00 +14°C° 0 mm 5 m/S 741 mmHg 65%
03:00 +13°C° 0 mm 5 m/S 741 mmHg 66%
04:00 +13°C° 0 mm 5 m/S 741 mmHg 67%
05:00 +13°C° 0 mm 5 m/S 741 mmHg 67%
06:00 +13°C° 0 mm 5 m/S 741 mmHg 68%
07:00 +13°C° 0 mm 5 m/S 741 mmHg 68%
08:00 +14°C° 0 mm 6 m/S 741 mmHg 68%
09:00 +15°C° 0 mm 6 m/S 741 mmHg 65%
10:00 +17°C° 0 mm 6 m/S 741 mmHg 62%
11:00 +20°C° 0 mm 6 m/S 742 mmHg 59%
12:00 +20°C° 0 mm 6 m/S 741 mmHg 58%
13:00 +21°C° 0 mm 6 m/S 741 mmHg 56%
14:00 +22°C° 0 mm 6 m/S 741 mmHg 55%
15:00 +21°C° 0 mm 6 m/S 741 mmHg 59%
16:00 +20°C° 0 mm 5 m/S 741 mmHg 63%
17:00 +19°C° 0 mm 4 m/S 741 mmHg 67%
18:00 +17°C° 0 mm 5 m/S 741 mmHg 66%
19:00 +16°C° 0 mm 5 m/S 741 mmHg 66%
20:00 +16°C° 0 mm 6 m/S 742 mmHg 65%
21:00 +15°C° 0 mm 6 m/S 742 mmHg 63%
22:00 +15°C° 0 mm 6 m/S 742 mmHg 61%
23:00 +15°C° 0 mm 6 m/S 742 mmHg 59%

übermorgen, 27 September, Sonntag

Zeit Temperatur Niederschläge Wind Luftdruck Luftfeuchtigkeit
00:00 +14°C° 0 mm 6 m/S 742 mmHg 58%
01:00 +14°C° 0 mm 6 m/S 742 mmHg 58%
02:00 +13°C° 0 mm 5 m/S 742 mmHg 57%
03:00 +13°C° 0 mm 5 m/S 742 mmHg 58%
04:00 +13°C° 0 mm 5 m/S 742 mmHg 59%
05:00 +13°C° 0 mm 5 m/S 742 mmHg 60%
06:00 +13°C° 0 mm 6 m/S 742 mmHg 60%
07:00 +14°C° 0 mm 6 m/S 742 mmHg 60%
08:00 +14°C° 0 mm 7 m/S 742 mmHg 60%
09:00 +16°C° 0 mm 7 m/S 742 mmHg 57%
10:00 +17°C° 0 mm 8 m/S 742 mmHg 54%
11:00 +18°C° 0 mm 8 m/S 742 mmHg 51%
12:00 +20°C° 0 mm 8 m/S 742 mmHg 51%
13:00 +20°C° 0 mm 8 m/S 742 mmHg 51%
14:00 +20°C° 0 mm 8 m/S 742 mmHg 51%
15:00 +18°C° 0.1 mm 7 m/S 742 mmHg 56%
16:00 +17°C° 0.1 mm 7 m/S 742 mmHg 60%
17:00 +15°C° 0.1 mm 6 m/S 742 mmHg 64%
18:00 +15°C° 0.9 mm 6 m/S 742 mmHg 71%
19:00 +14°C° 0.9 mm 6 m/S 743 mmHg 77%
20:00 +12°C° 0.9 mm 7 m/S 743 mmHg 83%
21:00 +13°C° 0.8 mm 6 m/S 743 mmHg 85%
22:00 +13°C° 0.8 mm 6 m/S 743 mmHg 86%
23:00 +11°C° 0.8 mm 6 m/S 743 mmHg 88%

28 September, Montag

Zeit Temperatur Niederschläge Wind Luftdruck Luftfeuchtigkeit
00:00 +12°C° 1 mm 5 m/S 743 mmHg 90%
01:00 +12°C° 1 mm 4 m/S 743 mmHg 92%
02:00 +12°C° 1 mm 4 m/S 743 mmHg 94%
03:00 +13°C° 0.4 mm 3 m/S 743 mmHg 94%
04:00 +13°C° 0.4 mm 3 m/S 744 mmHg 95%
05:00 +13°C° 0.4 mm 3 m/S 744 mmHg 96%
06:00 +13°C° 0.1 mm 3 m/S 744 mmHg 95%
07:00 +13°C° 0.1 mm 3 m/S 745 mmHg 93%
08:00 +13°C° 0.1 mm 3 m/S 745 mmHg 92%
09:00 +14°C° 0 mm 3 m/S 745 mmHg 89%
10:00 +15°C° 0 mm 2 m/S 746 mmHg 86%
11:00 +16°C° 0 mm 2 m/S 746 mmHg 83%
12:00 +16°C° 0 mm 2 m/S 746 mmHg 77%
13:00 +17°C° 0 mm 2 m/S 747 mmHg 71%
14:00 +18°C° 0 mm 2 m/S 747 mmHg 65%
15:00 +18°C° 0 mm 1 m/S 747 mmHg 68%
16:00 +16°C° 0 mm 1 m/S 747 mmHg 71%
17:00 +14°C° 0 mm 0 m/S 747 mmHg 73%
18:00 +13°C° 0 mm 0 m/S 747 mmHg 76%
19:00 +12°C° 0 mm 0 m/S 747 mmHg 78%
20:00 +11°C° 0 mm 0 m/S 747 mmHg 81%
21:00 +12°C° 0 mm 1 m/S 747 mmHg 83%
22:00 +12°C° 0 mm 1 m/S 747 mmHg 85%
23:00 +11°C° 0 mm 1 m/S 748 mmHg 86%

29 September, Dienstag

Zeit Temperatur Niederschläge Wind Luftdruck Luftfeuchtigkeit
00:00 +12°C° 0 mm 2 m/S 747 mmHg 88%
01:00 +12°C° 0 mm 2 m/S 747 mmHg 90%
02:00 +12°C° 0 mm 2 m/S 747 mmHg 92%
03:00 +11°C° 0 mm 3 m/S 746 mmHg 93%
04:00 +11°C° 0 mm 3 m/S 746 mmHg 94%
05:00 +11°C° 0 mm 3 m/S 746 mmHg 95%
06:00 +11°C° 0 mm 4 m/S 746 mmHg 91%
07:00 +12°C° 0 mm 4 m/S 745 mmHg 88%
08:00 +13°C° 0 mm 5 m/S 745 mmHg 85%
09:00 +14°C° 0 mm 5 m/S 745 mmHg 79%
10:00 +15°C° 0 mm 5 m/S 744 mmHg 73%
11:00 +16°C° 0 mm 5 m/S 744 mmHg 67%
12:00 +17°C° 0 mm 5 m/S 744 mmHg 66%
13:00 +17°C° 0 mm 5 m/S 743 mmHg 65%
14:00 +17°C° 0 mm 6 m/S 743 mmHg 64%
15:00 +17°C° 0 mm 5 m/S 743 mmHg 68%
16:00 +16°C° 0 mm 5 m/S 743 mmHg 71%
17:00 +15°C° 0 mm 5 m/S 743 mmHg 74%
18:00 +14°C° 0 mm 5 m/S 742 mmHg 74%
19:00 +14°C° 0 mm 5 m/S 742 mmHg 74%
20:00 +13°C° 0 mm 6 m/S 742 mmHg 74%
21:00 +13°C° 0 mm 6 m/S 742 mmHg 73%
22:00 +13°C° 0 mm 6 m/S 742 mmHg 73%
23:00 +11°C° 0 mm 6 m/S 742 mmHg 73%

30 September, Mittwoch

Zeit Temperatur Niederschläge Wind Luftdruck Luftfeuchtigkeit
00:00 +11°C° 0 mm 6 m/S 742 mmHg 74%
01:00 +11°C° 0 mm 6 m/S 741 mmHg 75%
02:00 +11°C° 0 mm 6 m/S 741 mmHg 75%
03:00 +11°C° 0 mm 6 m/S 741 mmHg 74%
04:00 +11°C° 0 mm 7 m/S 741 mmHg 73%
05:00 +11°C° 0 mm 7 m/S 740 mmHg 71%
06:00 +11°C° 0 mm 7 m/S 740 mmHg 67%
07:00 +11°C° 0 mm 7 m/S 740 mmHg 63%
08:00 +11°C° 0 mm 6 m/S 740 mmHg 58%
09:00 +11°C° 0 mm 7 m/S 740 mmHg 59%
10:00 +12°C° 0 mm 7 m/S 740 mmHg 59%
11:00 +12°C° 0 mm 7 m/S 740 mmHg 60%
12:00 +12°C° 0 mm 7 m/S 741 mmHg 61%
13:00 +14°C° 0 mm 7 m/S 741 mmHg 63%
14:00 +14°C° 0 mm 7 m/S 741 mmHg 65%
15:00 +12°C° 0 mm 7 m/S 741 mmHg 67%
16:00 +12°C° 0 mm 7 m/S 741 mmHg 70%
17:00 +11°C° 0 mm 7 m/S 742 mmHg 72%
18:00 +11°C° 0 mm 6 m/S 742 mmHg 74%
19:00 +11°C° 0 mm 6 m/S 742 mmHg 75%
20:00 +11°C° 0 mm 6 m/S 742 mmHg 76%
21:00 +12°C° 0 mm 5 m/S 742 mmHg 77%
22:00 +12°C° 0 mm 5 m/S 742 mmHg 79%
23:00 +12°C° 0 mm 5 m/S 742 mmHg 80%
Mehr zeigen